AirNav   Everest Fuels
 
 319 users online  

12PN WCAU Heliport
Philadelphia, Pennsylvania, USA

GOING TO PHILADELPHIA?


FAA INFORMATION EFFECTIVE 18 JUNE 2020

Location

FAA Identifier: 12PN
Lat/Long: 40-00-26.4040N 075-12-55.6470W
40-00.440067N 075-12.927450W
40.0073344,-75.2154575
(estimated)
Elevation: 230 ft. / 70 m (estimated)
Variation: 11W (1985)
From city: 6 miles NE of PHILADELPHIA, PA
Time zone: UTC -4 (UTC -5 during Standard Time)
Zip code: 19004

Heliport Operations

Heliport use: Private use. Permission required prior to landing
Activation date: 02/1979
Control tower: no
ARTCC: NEW YORK CENTER
FSS: WILLIAMSPORT FLIGHT SERVICE STATION
Attendance: UNATNDD
Wind indicator: yes
Segmented circle: no
Lights: FOR PERIMETER LGTS CALL 610-955-8565.

Heliport Communications

WX AWOS-3 at LOM (8 nm N): 118.925 (215-646-1068)
WX ASOS at PHL (8 nm S): PHONE 215-492-9617
WX ASOS at PNE (10 nm NE): 121.15 (215-677-0146)
WX AWOS-3T at OQN (17 nm W): 121.4 ((610) 692-6190)
WX ASOS at VAY (17 nm E): 119.325 (609-267-1176)

Nearby radio navigation aids

VOR radial/distance  VOR name  Freq  Var
PTWr138/20.4POTTSTOWN VORTAC116.5009W
ARDr234/20.4YARDLEY VOR/DME108.2010W
MXEr085/21.6MODENA VORTAC113.2009W
OODr020/22.6WOODSTOWN VORTAC112.8010W
DQOr052/26.8DUPONT VORTAC114.0010W
GXUr282/28.4MC GUIRE VORTAC110.6012W
VCNr348/30.4CEDAR LAKE VOR/DME115.2010W
RBVr261/35.1ROBBINSVILLE VORTAC113.8010W
CYNr298/37.8COYLE VORTAC113.4010W

 
NDB name  Hdg/Dist  Freq  Var  ID
AMBLER168/7.827512WING .. -. --.
RAINBOW005/35.536311WRNB .-. -. -...

Heliport Services

Runway Information

Helipad H1

Dimensions: 60 x 60 ft. / 18 x 18 m
60 X 60 PAD WITHIN 300 X 200 TURF LANDING/TAKEOFF AREA.
Surface: asphalt, in fair condition
Runway edge lights: PERI
Latitude: 40-00.440067N
Longitude: 075-12.927450W
Elevation: 230.0 ft.
Traffic pattern: leftleft
Markings: basic, in fair condition

Heliport Ownership and Management from official FAA records

Ownership: Privately-owned
Owner: WCAU-TV
10 MONUMENT RD
BALA CYNWYD, PA 19004
Phone 215-668-5675
Manager: ANGELO ZANGARE
10 MONUMENT RD
BALA CYNWYD, PA 19004
Phone 215-668-5675

Additional Remarks

TLOF 40' DIAMETER (ASPHALT)
FOR CD CTC PHILADELPHIA APCH AT 800-354-9884.
APP/DEP PATHS; 160 APCH/340 DEP.

Instrument Procedures

There are no published instrument procedures at 12PN.

Some nearby airports with instrument procedures:

KLOM - Wings Field Airport (8 nm N)
KPHL - Philadelphia International Airport (8 nm S)
KPNE - Northeast Philadelphia Airport (10 nm NE)
N10 - Perkiomen Valley Airport (15 nm NW)
KOQN - Brandywine Regional Airport (17 nm W)
KVAY - South Jersey Regional Airport (17 nm E)
7N7 - Spitfire Aerodrome (18 nm SW)
19N - Camden County Airport (18 nm SE)
N14 - Flying W Airport (19 nm E)
17N - Cross Keys Airport (20 nm SE)
 
Loc | Ops | Rwys | IFR | FBO | Links
Com | Nav | Svcs | Stats | Notes
Area around 12PN (WCAU Heliport)
 
Road maps at: MapQuest Bing Google
 
Aerial photo
No photo
 
Sectional chart

 
Airport distance calculator
Flying to WCAU Heliport? Find the distance to fly.

From to 12PN

Sunrise and sunset
Times for 09-Jul-2020
 Local
(UTC-4)
 Zulu
(UTC)
Morning civil twilight05:1009:10
Sunrise05:4209:42
Sunset20:3000:30
Evening civil twilight21:0301:03

Current date and time
Zulu (UTC)  09-Jul-2020 07:19:03
Local (UTC-4)  09-Jul-2020 03:19:03
 
METAR
KLOM 
8nm N 
090655Z AUTO 00000KT 5SM BR CLR 21/21 A2997 RMK AO2 T02110209
KPHL 
8nm S 
090654Z 14004KT 10SM FEW035 SCT180 24/22 A2996 RMK AO2 SLP145 T02390222
KPNE 
10nm NE 
090654Z AUTO 16003KT 10SM CLR 23/22 A2997 RMK AO2 SLP147 T02330222
KOQN 
17nm W 
090655Z AUTO 00000KT 10SM CLR 23/21 A2997 RMK AO2
KVAY 
18nm E 
ASOS 119.325 609-267-1176
090654Z AUTO 00000KT 3SM BR OVC003 23/22 A2996 RMK AO2 SLP145 T02330217
TAF
KPHL 
8nm S 
090541Z 0906/1012 17006KT P6SM SCT150 TEMPO 0909/0912 5SM BR SCT007 FM091300 12007KT P6SM SCT050 FM100600 07006KT P6SM OVC025 FM100900 06008KT P6SM OVC010
KPNE 
10nm NE 
090541Z 0906/1006 VRB03KT P6SM BKN150 TEMPO 0909/0912 2SM BR BKN007 FM091400 13007KT P6SM SCT040 FM100500 10004KT P6SM OVC030
NOTAMs
Click for the latest NOTAMs
NOTAMs are issued by the DoD/FAA and will open in a separate window not controlled by AirNav.

 

 
 

Would you like to see your business listed on this page?

 If your business provides an interesting product or service to pilots, flight crews, aircraft, or users of the WCAU Heliport, you should consider listing it here.  To start the listing process, click on the button below
 
Add a business
 

Other Pages about WCAU Heliport

Update a link
 
Copyright © AirNav, LLC. All rights reserved. Privacy Policy  Contact